TITAN 3C TRANSTAGE DEB, 43285

Orbit data source: Space-Track

TITAN 3C TRANSTAGE DEB, 43285 is space debris in GEO originally from a launch on Sun, 09 Feb 1969 UTC launched from the Air Force Eastern Test Range (AFETR). Debris objects in space refer to the collection of defunct objects orbiting the Earth. Examples of debris include non-operational satellites, rocket bodies, and fragments generated from explosions, collisions, or faulty payload assembly.

Loading next visibility...
Identifier
43285, 1969-013F
Orbit
GEO
Last TLE update
1 year ago
Origin
Manufacturer
Martin Marietta
Mission
Spacecraft
Bus & Motor
Unknown
Mass
Unknown
Launch date (UTC)
1969-02-09 (56 years ago)
Launch vehicle
Unknown
Launch site
Air Force Eastern Test Range (AFETR)
Object type
Payload
Rocket body
Debris
Shape & HBR
Unknown
Radar Cross Section
RCS unknown

Expand to show TLE details & history

TLE from 1 year ago
0 TITAN 3C TRANSTAGE DEB
1 43285U 69013F   24095.09498220 -.00000149  00000-0  00000-0 0  9990
2 43285   1.0197 245.9422 0270942 336.7445  21.0578  0.93368463 20597
Epoch: 2024-04-04T02:16Z
TLE epoch observation values (Epoch: 2024-04-04T02:16:46.462Z)
Latitude
-0.00002°
Longitude
17.82882°
Altitude
36,726.172 km
Speed
3.079 km/s
True Right ascension
16h 19m 40s
True Declination
0° 00' 00"
Sunlit
Object was in daylight at epoch
Visualization orbit readout
Latitude
0.10431°
Longitude
101.19709°
Altitude
37,971.179 km
Speed
2.994 km/s
Apparent Right ascension
22h 02m 15s
Apparent Declination
-5° 43' 59"
Sunlit
Object is in daylight
Visualization observer readout
Local Sidereal Time
20:37:54
Azimuth
151.965° SSE
Elevation
40.386°
Doppler factor
1
Orbital elements
Apogee altitude
39,039.238 km
Perigee altitude
36,643.066 km
Semi-major axis
44,219.289 km
Eccentricity
0.02709
Inclination
1.0197°
RAAN
245.9422°
Arg. of periapsis
336.7445°
True anomaly
Unknown
Mean anomaly
21.0578°
Eccentric anomaly
Unknown
Mean motion
0.23341 °/min
Orbital period
1,542.33 mins
BSTAR
0
Loading maneuver chart data...
Loading SW <> Apogee altitude chart data...

TITAN 3C TRANSTAGE DEB Visibility forecast

Observer location: undefined°, undefined°

Span
Click to sort rows by Start time (UTC) header in descending order
Start Az.
Max El. time (UTC)
Max El. Az.
Max El.
End time (UTC)
End Az.
1440 mins2025-07-01 08:59:41.887Z151.975° SSE2025-07-01 19:53:41.887Z177.722° S34.836°2025-07-02 08:59:41.887Z189.59° SSW
|